| time (UTC) | temp C | wind direction | speed KPH | gust KPH | rain 1hr cm | rain 24hr cm | rain mn cm | humidity % | barometer mb |
| 20260504120230 | 10 | 237 | 3.2 | 6.4 | 0.00 | 0.00 | 0.00 | 74 | 1006.3 |
| 20260504100230 | 8 | 239 | 4.8 | 6.4 | 0.00 | 0.00 | 0.00 | 78 | 1006.4 |
| 20260504081230 | 9 | 247 | 0.0 | 0.0 | 0.00 | 0.00 | 0.00 | 74 | 1006.4 |
| 20260504080229 | 10 | 247 | 0.0 | 1.6 | 0.00 | 0.00 | 0.00 | 73 | 1006.4 |
| 20260504070328 | 11 | 270 | 1.6 | 1.6 | 0.00 | 0.00 | 0.00 | 70 | 1007.4 |
| 20260504045708 | 13 | 273 | 1.6 | 4.8 | 0.00 | 0.00 | 0.00 | 63 | 1008.3 |
| 20260504044808 | 13 | 247 | 1.6 | 4.8 | 0.00 | 0.00 | 0.00 | 63 | 1008.3 |
| 20260504040910 | 15 | 239 | 6.4 | 11.3 | 0.00 | 0.00 | 0.00 | 59 | 1008.2 |
| 20260504040807 | 15 | 244 | 6.4 | 11.3 | 0.00 | 0.00 | 0.00 | 60 | 1008.3 |
| 20260504035808 | 15 | 224 | 4.8 | 11.3 | 0.00 | 0.00 | 0.00 | 58 | 1008.3 |
| 20260504034906 | 15 | 231 | 4.8 | 11.3 | 0.00 | 0.00 | 0.00 | 59 | 1008.2 |
| 20260504034806 | 15 | 233 | 9.7 | 14.5 | 0.00 | 0.00 | 0.00 | 58 | 1008.2 |
| 20260504033808 | 15 | 234 | 8.0 | 11.3 | 0.00 | 0.00 | 0.00 | 58 | 1008.5 |
| 20260504032805 | 15 | 236 | 6.4 | 9.7 | 0.00 | 0.00 | 0.00 | 57 | 1008.3 |
| 20260504030809 | 15 | 232 | 6.4 | 11.3 | 0.00 | 0.00 | 0.00 | 57 | 1008.6 |
| 20260504025907 | 15 | 233 | 6.4 | 14.5 | 0.00 | 0.00 | 0.00 | 57 | 1008.7 |
| 20260504025007 | 15 | 243 | 6.4 | 9.7 | 0.00 | 0.00 | 0.00 | 57 | 1008.6 |
| 20260504024008 | 15 | 236 | 4.8 | 14.5 | 0.00 | 0.00 | 0.00 | 55 | 1008.7 |
| 20260504022008 | 16 | 245 | 3.2 | 6.4 | 0.00 | 0.00 | 0.00 | 54 | 1008.6 |
| 20260504021010 | 16 | 238 | 3.2 | 9.7 | 0.00 | 0.00 | 0.00 | 54 | 1008.3 |
| 20260504020009 | 16 | 226 | 0.0 | 6.4 | 0.00 | 0.00 | 0.00 | 53 | 1008.5 |
| 20260504015008 | 16 | 225 | 4.8 | 9.7 | 0.00 | 0.00 | 0.00 | 52 | 1008.3 |
| 20260504014009 | 16 | 242 | 3.2 | 4.8 | 0.00 | 0.00 | 0.00 | 50 | 1008.3 |
| 20260504013008 | 16 | 247 | 1.6 | 4.8 | 0.00 | 0.00 | 0.00 | 49 | 1008.3 |
| 20260504012009 | 17 | 247 | 3.2 | 3.2 | 0.00 | 0.00 | 0.00 | 49 | 1008.1 |
| 20260504011009 | 17 | 227 | 1.6 | 6.4 | 0.00 | 0.00 | 0.00 | 49 | 1007.8 |
| 20260504005008 | 18 | 237 | 3.2 | 6.4 | 0.00 | 0.00 | 0.00 | 47 | 1007.8 |
| 20260504004009 | 18 | 239 | 4.8 | 9.7 | 0.00 | 0.00 | 0.00 | 45 | 1007.8 |
| 20260504003907 | 18 | 239 | 6.4 | 8.0 | 0.00 | 0.00 | 0.00 | 45 | 1007.8 |
| 20260504002906 | 18 | 241 | 4.8 | 8.0 | 0.00 | 0.00 | 0.00 | 45 | 1007.8 |
| 20260504001922 | 18 | 257 | 6.4 | 9.7 | 0.00 | 0.00 | 0.00 | 44 | 1007.8 |
| 20260504001008 | 19 | 247 | 3.2 | 9.7 | 0.00 | 0.00 | 0.00 | 44 | 1007.7 |
| 20260503235008 | 19 | 265 | 8.0 | 12.9 | 0.00 | 0.00 | 0.00 | 43 | 1007.7 |
| 20260503234008 | 19 | 236 | 9.7 | 19.3 | 0.00 | 0.00 | 0.00 | 42 | 1007.8 |
| 20260503233908 | 19 | 254 | 6.4 | 11.3 | 0.00 | 0.00 | 0.00 | 41 | 1007.8 |
| 20260503233008 | 20 | 257 | 11.3 | 17.7 | 0.00 | 0.00 | 0.00 | 42 | 1007.7 |
| 20260503232909 | 20 | 254 | 9.7 | 14.5 | 0.00 | 0.00 | 0.00 | 41 | 1007.7 |
| 20260503231908 | 19 | 268 | 6.4 | 9.7 | 0.00 | 0.00 | 0.00 | 41 | 1007.9 |
| 20260503230006 | 20 | 276 | 9.7 | 16.1 | 0.00 | 0.00 | 0.00 | 40 | 1008.1 |
| 20260503225922 | 20 | 281 | 9.7 | 20.9 | 0.00 | 0.00 | 0.00 | 41 | 1008.2 |
| 20260503225006 | 20 | 264 | 11.3 | 22.5 | 0.00 | 0.00 | 0.00 | 40 | 1008.0 |
| 20260503224908 | 20 | 259 | 14.5 | 22.5 | 0.00 | 0.00 | 0.00 | 41 | 1008.0 |
| 20260503223909 | 19 | 285 | 12.9 | 24.1 | 0.00 | 0.00 | 0.00 | 41 | 1008.1 |
| 20260503222909 | 20 | 287 | 11.3 | 33.8 | 0.00 | 0.00 | 0.00 | 40 | 1008.1 |
| 20260503221008 | 19 | 235 | 6.4 | 12.9 | 0.00 | 0.00 | 0.00 | 41 | 1008.0 |
| 20260503220107 | 19 | 246 | 9.7 | 27.4 | 0.00 | 0.00 | 0.00 | 42 | 1008.0 |
| 20260503215108 | 19 | 242 | 14.5 | 24.1 | 0.00 | 0.00 | 0.00 | 42 | 1008.2 |
| 20260503215006 | 19 | 231 | 17.7 | 25.7 | 0.00 | 0.00 | 0.00 | 42 | 1008.3 |
| 20260503214008 | 18 | 213 | 16.1 | 27.4 | 0.00 | 0.00 | 0.00 | 42 | 1008.5 |
| 20260503213008 | 18 | 225 | 17.7 | 32.2 | 0.00 | 0.00 | 0.00 | 42 | 1008.6 |
| 20260503212008 | 18 | 235 | 12.9 | 29.0 | 0.00 | 0.00 | 0.00 | 42 | 1008.6 |
| 20260503211908 | 18 | 239 | 14.5 | 30.6 | 0.00 | 0.00 | 0.00 | 43 | 1008.7 |
| 20260503210007 | 18 | 242 | 12.9 | 20.9 | 0.00 | 0.00 | 0.00 | 43 | 1009.0 |
| 20260503205022 | 18 | 261 | 17.7 | 43.5 | 0.00 | 0.00 | 0.00 | 42 | 1009.2 |
| 20260503204008 | 18 | 234 | 20.9 | 32.2 | 0.00 | 0.00 | 0.00 | 42 | 1009.6 |
| 20260503203107 | 17 | 244 | 20.9 | 33.8 | 0.00 | 0.00 | 0.00 | 43 | 1009.6 |
| 20260503202108 | 17 | 221 | 16.1 | 30.6 | 0.00 | 0.00 | 0.00 | 43 | 1010.0 |
| 20260503201108 | 17 | 218 | 17.7 | 30.6 | 0.00 | 0.00 | 0.00 | 44 | 1010.2 |
| 20260503200108 | 17 | 207 | 16.1 | 29.0 | 0.00 | 0.00 | 0.00 | 48 | 1010.2 |
| 20260503195108 | 16 | 223 | 9.7 | 17.7 | 0.00 | 0.00 | 0.00 | 50 | 1010.3 |
| 20260503194108 | 16 | 233 | 11.3 | 30.6 | 0.00 | 0.00 | 0.00 | 50 | 1010.6 |
| 20260503193108 | 16 | 212 | 19.3 | 30.6 | 0.00 | 0.00 | 0.00 | 51 | 1011.0 |
| 20260503192109 | 16 | 224 | 22.5 | 30.6 | 0.00 | 0.00 | 0.00 | 51 | 1011.2 |
| 20260503191205 | 16 | 235 | 9.7 | 22.5 | 0.00 | 0.00 | 0.00 | 50 | 1011.2 |
| 20260503190208 | 15 | 235 | 14.5 | 24.1 | 0.00 | 0.00 | 0.00 | 49 | 1011.1 |
| 20260503185209 | 15 | 216 | 19.3 | 33.8 | 0.00 | 0.00 | 0.00 | 50 | 1011.1 |
| 20260503184306 | 15 | 218 | 16.1 | 24.1 | 0.00 | 0.00 | 0.00 | 49 | 1011.2 |
| 20260503184207 | 15 | 236 | 12.9 | 22.5 | 0.00 | 0.00 | 0.00 | 49 | 1011.2 |
| 20260503184108 | 15 | 212 | 16.1 | 29.0 | 0.00 | 0.00 | 0.00 | 49 | 1011.2 |
| 20260503183107 | 15 | 222 | 22.5 | 43.5 | 0.00 | 0.00 | 0.00 | 51 | 1011.4 |
| 20260503182108 | 14 | 231 | 19.3 | 32.2 | 0.00 | 0.00 | 0.00 | 51 | 1011.4 |
| 20260503181107 | 14 | 231 | 20.9 | 32.2 | 0.00 | 0.00 | 0.00 | 52 | 1011.8 |
| 20260503180207 | 14 | 238 | 14.5 | 27.4 | 0.00 | 0.00 | 0.00 | 54 | 1012.1 |
| 20260503180106 | 14 | 213 | 12.9 | 33.8 | 0.00 | 0.00 | 0.00 | 54 | 1012.2 |
| 20260503175109 | 13 | 208 | 14.5 | 27.4 | 0.00 | 0.00 | 0.00 | 54 | 1012.3 |
| 20260503174207 | 13 | 189 | 11.3 | 24.1 | 0.00 | 0.00 | 0.00 | 54 | 1012.3 |
| 20260503173208 | 13 | 212 | 16.1 | 37.0 | 0.00 | 0.00 | 0.00 | 56 | 1013.0 |
| 20260503172207 | 13 | 211 | 17.7 | 27.4 | 0.00 | 0.00 | 0.00 | 57 | 1013.1 |
| 20260503171208 | 13 | 213 | 12.9 | 35.4 | 0.00 | 0.00 | 0.00 | 61 | 1013.3 |
| 20260503170306 | 12 | 213 | 8.0 | 14.5 | 0.00 | 0.00 | 0.00 | 62 | 1013.8 |
| 20260503150422 | 12 | 251 | 9.7 | 19.3 | 0.00 | 0.00 | 0.00 | 56 | 1015.7 |
| 20260503150307 | 12 | 267 | 14.5 | 30.6 | 0.00 | 0.00 | 0.00 | 57 | 1015.6 |
| 20260503140308 | 10 | 229 | 6.4 | 14.5 | 0.00 | 0.03 | 0.00 | 62 | 1015.8 |
| 20260503130607 | 8 | 245 | 12.9 | 19.3 | 0.00 | 0.03 | 0.00 | 61 | 1016.3 |